Location: Caltech
(34.1382°N, 118.1253°W)
Time: 00:18:39
(UTC-08:00)

Iridium 14 - Visible Passes

Search period start: 29 January 2015 00:00
Search period end: 08 February 2015 00:00
Orbit: 776 x 779 km, 86.4° (Epoch: 28 January)

Date Brightness Start Highest point End Pass type
(mag) Time Alt. Az. Time Alt. Az. Time Alt. Az.
29 Jan 8.9 05:26:17 10° ESE 05:29:36 18° E 05:33:07 10° NE visible
29 Jan 6.4 17:38:49 10° NNE 17:43:45 42° E 17:48:40 10° SSE visible
29 Jan 8.8 19:20:41 10° NW 19:24:10 18° W 19:27:26 10° WSW visible
30 Jan 7.8 18:46:09 10° NNW 18:50:49 34° W 18:55:26 10° SSW visible
31 Jan 7.0 05:57:58 10° SSE 06:02:59 51° E 06:08:03 10° NNE visible
31 Jan 6.5 18:12:14 10° N 18:17:25 66° W 18:22:34 10° S visible
01 Feb 8.3 05:25:23 10° SE 05:29:36 26° E 05:33:56 10° NNE visible
01 Feb 6.1 17:38:44 10° N 17:43:54 64° E 17:49:04 10° SSE visible
01 Feb 9.2 19:22:18 10° WNW 19:24:09 11° W 19:25:38 10° W visible
02 Feb 9.1 04:53:55 10° ESE 04:56:17 14° E 04:58:57 10° NE visible
02 Feb 8.5 18:46:46 10° NNW 18:50:50 23° W 18:54:46 10° SW visible
03 Feb 6.2 05:57:52 10° S 06:03:03 78° E 06:08:17 10° N visible
03 Feb 7.4 18:12:32 10° NNW 18:17:28 44° W 18:22:22 10° SSW visible
04 Feb 7.5 05:24:51 10° SSE 05:29:37 39° E 05:34:28 10° NNE visible
05 Feb 8.6 04:52:35 10° SE 04:56:15 21° E 05:00:07 10° NE visible
05 Feb 9.0 18:47:45 10° NW 18:50:50 15° W 18:53:38 10° WSW visible
06 Feb 9.4 04:22:49 10° E 04:22:58 10° E 04:23:32 10° ENE visible
06 Feb 6.0 05:57:58 10° S 06:03:09 71° W 06:08:22 10° N visible
06 Feb 8.2 18:13:00 10° NNW 18:17:30 29° W 18:21:55 10° SW visible
07 Feb 6.6 05:24:34 10° SSE 05:29:40 59° E 05:34:48 10° N visible
